AMOS-3

Last updated on Jan. 17, 2020, 4:31 a.m. UTC

1 32794U 08022A   20016.29513591 -.00000039  00000-0  00000+0 0  9993
2 32794   0.0158  72.6821 0001436 264.5034 240.1292  1.00269306 42941
UTC
Height (km)
Latitude
Longitude
Inclination
Orbital Period
UTC large
Height (km)
Speed (km/s)
/
Latitude / Longitude
Inclination (degrees)
Orbital Period (minutes)
Azimuth
Elevation
Range (km)
Doppler Factor
iOS Compass Heading
iOS Angle

Next 30 passes for location: Hong Kong

Rise time Rise Azimuth (degrees) Set time Set Azimuth (degrees) Duration Max altitude (degrees)

No matching passes for this satellites